Location: Barrio Las Umbrías
(40.4173°N, 4.8685°W)
Time: 12:06:24
(UTC+00:00)

Cosmos 1315 Rocket - Pass Details

Date: 17 August 2022
Orbit: 526 x 564 km, 81.2° (Epoch: 27 September)

Event Time Altitude Azimuth Distance (km) Brightness Sun altitude
Exits shadow 21:13:18 40° 63° (ENE) 814 3.4 -20.6°
Drops below altitude 10° 21:16:24 10° 22° (NNE) 1,821 5.7 -21.1°
Sets 21:18:39 0° 16° (NNE) 2,726 6.7 -21.4°
